DW4248 Weather Reports


Display with metric or nautical units.
time (UTC)temp
F
wind
direction
speed
MPH
gust
MPH
rain 1hr
in
rain 24hr
in
rain mn
in
humidity
%
barometer
mb
20260504045403 68 136 2.0 5.0 0.00 0.00 0.00 56 1007.5
20260504044504 68 148 2.0 5.0 0.00 0.00 0.00 56 1007.6
20260504043603 68 163 1.0 7.0 0.00 0.00 0.00 55 1007.8
20260504042703 69 148 1.0 10.0 0.00 0.00 0.00 54 1008.2
20260504041803 69 152 1.0 6.0 0.00 0.00 0.00 54 1008.4
20260504040924 69 181 2.0 6.0 0.00 0.00 0.00 54 1008.5
20260504040003 69 159 1.0 3.0 0.00 0.00 0.00 54 1008.0
20260504035403 69 134 1.0 4.0 0.00 0.00 0.00 54 1007.9
20260504034503 69 147 1.0 6.0 0.00 0.00 0.00 55 1008.7
20260504033603 69 138 1.0 3.0 0.00 0.00 0.00 53 1008.9
20260504032703 69 136 1.0 2.0 0.00 0.00 0.00 53 1009.1
20260504031803 69 141 1.0 3.0 0.00 0.00 0.00 53 1009.1
20260504030903 69 127 0.0 1.0 0.00 0.00 0.00 53 1009.1
20260504030003 70 133 1.0 2.0 0.00 0.00 0.00 52 1009.0
20260504025403 70 139 1.0 2.0 0.00 0.00 0.00 51 1008.9
20260504024503 70 127 1.0 2.0 0.00 0.00 0.00 51 1009.0
20260504023603 71 122 0.0 3.0 0.00 0.00 0.00 51 1009.1
20260504022703 71 132 1.0 4.0 0.00 0.00 0.00 50 1009.0
20260504021803 72 326 0.0 5.0 0.00 0.00 0.00 50 1009.0
20260504020903 72 355 1.0 5.0 0.00 0.00 0.00 48 1008.9
20260504020004 72 146 1.0 5.0 0.00 0.00 0.00 48 1008.5
20260504015403 72 149 1.0 5.0 0.00 0.00 0.00 47 1008.6
20260504014503 72 133 1.0 3.0 0.00 0.00 0.00 47 1008.5
20260504013603 72 134 1.0 2.0 0.00 0.00 0.00 47 1008.4
20260504012703 72 133 1.0 2.0 0.00 0.00 0.00 47 1008.4
20260504011803 73 143 1.0 2.0 0.00 0.00 0.00 46 1008.3
20260504010903 73 133 1.0 2.0 0.00 0.00 0.00 46 1008.2
20260504010003 73 132 1.0 1.0 0.00 0.00 0.00 45 1008.3
20260504005403 74 134 1.0 2.0 0.00 0.00 0.00 44 1008.2
20260504004503 74 128 1.0 2.0 0.00 0.00 0.00 44 1008.3
20260504003603 75 138 1.0 3.0 0.00 0.00 0.00 42 1008.3
20260504002703 75 138 1.0 4.0 0.00 0.00 0.00 42 1008.4
20260504001825 75 138 2.0 6.0 0.00 0.00 0.00 41 1008.4
20260504000903 76 140 1.0 3.0 0.00 0.00 0.00 41 1008.3
20260504000003 76 143 2.0 7.0 0.00 0.00 0.00 40 1008.4
20260503235403 76 140 2.0 7.0 0.00 0.00 0.00 39 1008.4
20260503234524 77 144 2.0 6.0 0.00 0.00 0.00 38 1008.5
20260503233603 77 148 2.0 7.0 0.00 0.00 0.00 39 1008.5
20260503232703 77 156 2.0 7.0 0.00 0.00 0.00 38 1008.6
20260503231803 77 145 2.0 9.0 0.00 0.00 0.00 37 1008.7
20260503230903 78 168 2.0 7.0 0.00 0.00 0.00 36 1008.7
20260503230003 78 154 2.0 8.0 0.00 0.00 0.00 36 1008.7
20260503225403 78 145 2.0 8.0 0.00 0.00 0.00 36 1008.9
20260503224503 78 305 3.0 11.0 0.00 0.00 0.00 35 1009.0
20260503223603 78 195 3.0 11.0 0.00 0.00 0.00 35 1009.0
20260503222724 78 174 3.0 9.0 0.00 0.00 0.00 34 1009.0
20260503221803 78 316 3.0 10.0 0.00 0.00 0.00 34 1009.1
20260503220924 78 320 3.0 14.0 0.00 0.00 0.00 35 1009.2
20260503220003 77 78 3.0 9.0 0.00 0.00 0.00 34 1009.3
20260503215424 78 14 3.0 11.0 0.00 0.00 0.00 34 1009.4
20260503214503 77 155 3.0 13.0 0.00 0.00 0.00 34 1009.5
20260503213603 77 158 4.0 13.0 0.00 0.00 0.00 33 1009.5
20260503212703 77 302 3.0 10.0 0.00 0.00 0.00 33 1009.6
20260503211803 77 164 3.0 8.0 0.00 0.00 0.00 34 1009.5
20260503210924 76 144 4.0 12.0 0.00 0.00 0.00 35 1009.5
20260503210003 76 142 4.0 18.0 0.00 0.00 0.00 33 1009.8
20260503205403 77 151 3.0 8.0 0.00 0.00 0.00 34 1009.9
20260503204524 77 205 3.0 11.0 0.00 0.00 0.00 34 1010.0
20260503203603 77 139 2.0 11.0 0.00 0.00 0.00 34 1010.1
20260503202703 76 144 5.0 13.0 0.00 0.00 0.00 36 1010.3
20260503201824 76 147 4.0 13.0 0.00 0.00 0.00 35 1010.6
20260503200903 76 149 4.0 10.0 0.00 0.00 0.00 36 1010.7
20260503200003 75 141 4.0 11.0 0.00 0.00 0.00 37 1010.9
20260503195424 75 139 3.0 8.0 0.00 0.00 0.00 36 1011.1
20260503194525 75 145 5.0 12.0 0.00 0.00 0.00 38 1011.4
20260503193603 74 147 3.0 10.0 0.00 0.00 0.00 37 1011.6
20260503192703 73 141 5.0 13.0 0.00 0.00 0.00 39 1011.8
20260503191803 73 143 5.0 15.0 0.00 0.00 0.00 38 1012.0
20260503190903 73 162 3.0 12.0 0.00 0.00 0.00 37 1012.5
20260503190003 73 144 4.0 12.0 0.00 0.00 0.00 38 1012.5
20260503185403 72 147 4.0 12.0 0.00 0.00 0.00 37 1012.6
20260503184524 72 147 3.0 12.0 0.00 0.00 0.00 40 1012.8
20260503183603 71 146 3.0 9.0 0.00 0.00 0.00 38 1013.1
20260503182703 71 147 4.0 12.0 0.00 0.00 0.00 41 1013.3
20260503181803 70 142 4.0 11.0 0.00 0.00 0.00 38 1013.6
20260503180903 70 153 2.0 11.0 0.00 0.00 0.00 42 1013.9
20260503180003 69 142 4.0 10.0 0.00 0.00 0.00 42 1014.3
20260503175403 69 146 4.0 12.0 0.00 0.00 0.00 39 1014.6
20260503174503 69 141 4.0 10.0 0.00 0.00 0.00 40 1014.8
20260503173603 68 152 3.0 9.0 0.00 0.00 0.00 41 1015.1
20260503172703 67 147 3.0 11.0 0.00 0.00 0.00 45 1015.5
20260503171803 67 149 3.0 11.0 0.00 0.00 0.00 42 1015.9
20260503170903 66 139 4.0 13.0 0.00 0.00 0.00 41 1015.9
20260503150924 59 145 2.0 6.0 0.00 0.00 0.00 58 1017.7
20260503130903 50 138 2.0 8.0 0.00 0.00 0.00 73 1018.4
20260503080903 45 134 0.0 1.0 0.00 0.00 0.00 85 1018.4
20260503072703 45 140 0.0 1.0 0.00 0.00 0.00 84 1018.4
20260503071803 45 140 0.0 1.0 0.00 0.00 0.00 84 1018.5
20260503070903 45 140 0.0 1.0 0.00 0.00 0.00 84 1018.6